Location: Newark
(43.9494°N, 6.8108°E)
Time: 11:28:05
(UTC+00:00)

Tiros 1 despin weight - All Passes

Search period start: 14 October 2019 00:00
Search period end: 24 October 2019 00:00
Orbit: 594 x 643 km, 48.2° (Epoch: 14 October)

Date Brightness Start Highest point End Pass type
(mag) Time Alt. Az. Time Alt. Az. Time Alt. Az.
14 Oct - 02:03:16 10° SSW 02:07:24 32° SE 02:11:34 10° E visible
14 Oct - 03:44:02 10° WSW 03:48:45 79° NNW 03:53:27 10° ENE visible
14 Oct - 05:26:08 10° WNW 05:30:42 49° N 05:35:15 10° ENE daylight
14 Oct - 07:08:00 10° WNW 07:12:41 74° NNE 07:17:18 10° ESE daylight
14 Oct - 08:49:51 10° WNW 08:54:03 34° SW 08:58:13 10° SSE daylight
15 Oct - 00:41:09 10° SSE 00:43:01 12° SE 00:44:51 10° ESE night (unlit)
15 Oct - 02:19:15 10° SW 02:23:49 54° SSE 02:28:24 10° ENE visible
15 Oct - 04:00:47 10° W 04:05:27 60° NNW 04:10:06 10° ENE visible
15 Oct - 05:42:54 10° WNW 05:47:30 52° N 05:52:03 10° E daylight
15 Oct - 07:24:37 10° WNW 07:29:18 77° SSW 07:33:55 10° ESE daylight
15 Oct - 09:07:02 10° W 09:10:21 20° SW 09:13:39 10° S daylight
16 Oct - 00:55:33 10° S 00:59:12 23° SE 01:02:53 10° E night (unlit)
16 Oct - 02:35:39 10° WSW 02:40:21 85° SSE 02:45:04 10° ENE visible
16 Oct - 04:17:37 10° W 04:22:13 51° N 04:26:47 10° ENE visible
16 Oct - 05:59:35 10° WNW 06:04:15 63° NNE 06:08:52 10° E daylight
16 Oct - 07:41:19 10° WNW 07:45:48 47° SSW 07:50:14 10° SE daylight
17 Oct - 01:11:10 10° SSW 01:15:32 40° SE 01:19:55 10° ENE visible
17 Oct - 02:52:18 10° WSW 02:56:59 69° NNW 03:01:41 10° ENE visible
17 Oct - 04:34:26 10° WNW 04:39:00 50° N 04:43:34 10° ENE visible
17 Oct - 06:16:13 10° WNW 06:20:56 85° NNE 06:25:35 10° ESE daylight
17 Oct - 07:58:14 10° W 08:02:10 27° SW 08:06:04 10° SSE daylight
17 Oct - 23:48:11 10° S 23:51:02 16° SE 23:53:54 10° E night (unlit)
18 Oct - 01:27:21 10° SW 01:31:59 66° SSE 01:36:39 10° ENE visible
18 Oct - 03:09:06 10° W 03:13:43 55° N 03:18:20 10° ENE visible
18 Oct - 04:51:09 10° WNW 04:55:47 56° N 05:00:24 10° E visible
18 Oct - 06:32:51 10° WNW 06:37:30 64° SSW 06:42:05 10° SE daylight
18 Oct - 08:15:44 10° W 08:18:25 15° SW 08:21:03 10° S daylight
19 Oct - 00:03:17 10° SSW 00:07:17 29° SE 00:11:19 10° E night (unlit)
19 Oct - 01:43:52 10° WSW 01:48:34 83° NNW 01:53:18 10° ENE visible
19 Oct - 03:25:55 10° WNW 03:30:30 50° N 03:35:05 10° ENE visible
19 Oct - 05:07:48 10° WNW 05:12:31 71° NNE 05:17:10 10° ESE visible
19 Oct - 06:49:36 10° WNW 06:53:56 38° SW 06:58:13 10° SSE daylight
19 Oct - 22:41:49 10° SE 22:42:55 11° SE 22:44:01 10° ESE night (unlit)
20 Oct - 00:19:10 10° SW 00:23:40 49° SSE 00:28:13 10° ENE night (unlit)
20 Oct - 02:00:36 10° W 02:05:15 62° NNW 02:09:56 10° ENE visible
20 Oct - 03:42:42 10° WNW 03:47:18 51° N 03:51:53 10° E visible
20 Oct - 05:24:26 10° WNW 05:29:09 82° SSW 05:33:48 10° ESE visible
20 Oct - 07:06:41 10° W 07:10:15 22° SW 07:13:47 10° S daylight
20 Oct - 22:55:38 10° S 22:59:05 21° SE 23:02:34 10° E night (unlit)
21 Oct - 00:35:30 10° WSW 00:40:10 80° SSE 00:44:53 10° ENE night (unlit)
21 Oct - 02:17:24 10° W 02:22:00 52° N 02:26:36 10° ENE visible
21 Oct - 03:59:24 10° WNW 04:04:03 61° NNE 04:08:42 10° E visible
21 Oct - 05:41:06 10° WNW 05:45:40 52° SSW 05:50:11 10° SE daylight
21 Oct - 07:24:56 10° WSW 07:26:26 11° SW 07:27:56 10° SSW daylight
21 Oct - 23:11:08 10° SSW 23:15:23 36° SE 23:19:41 10° ENE night (unlit)
22 Oct - 00:52:07 10° WSW 00:56:48 72° NNW 01:01:31 10° ENE night (unlit)
22 Oct - 02:34:13 10° WNW 02:38:47 50° N 02:43:22 10° ENE visible
22 Oct - 04:16:01 10° WNW 04:20:44 81° NNE 04:25:26 10° ESE visible
22 Oct - 05:57:57 10° W 06:02:03 30° SW 06:06:06 10° SSE daylight
22 Oct - 21:48:27 10° SSE 21:50:56 14° SE 21:53:27 10° E night (unlit)
22 Oct - 23:27:14 10° SW 23:31:49 61° SSE 23:36:27 10° ENE night (unlit)
23 Oct - 01:08:54 10° W 01:13:31 56° N 01:18:09 10° ENE night (unlit)
23 Oct - 02:50:57 10° WNW 02:55:34 54° N 03:00:12 10° E visible
23 Oct - 04:32:39 10° WNW 04:37:20 69° SSW 04:41:58 10° SE visible
23 Oct - 06:15:18 10° W 06:18:18 17° SW 06:21:17 10° S daylight
23 Oct - 22:03:19 10° SSW 22:07:09 26° SE 22:11:02 10° E night (unlit)
23 Oct - 23:43:43 10° WSW 23:48:22 87° NNW 23:53:06 10° ENE night (unlit)
